| time (UTC) | temp C | wind direction | speed KPH | gust KPH | rain 1hr cm | rain 24hr cm | rain mn cm | humidity % | barometer mb |
| 20260503225712 | 16 | 199 | 0.0 | 0.0 | 0.00 | 0.00 | 0.00 | 52 | 1014.0 |
| 20260503225212 | 16 | 213 | 3.2 | 4.8 | 0.00 | 0.00 | 0.00 | 58 | 1013.7 |
| 20260503224709 | 16 | 229 | 3.2 | 4.8 | 0.00 | 0.00 | 0.00 | 54 | 1014.1 |
| 20260503224207 | 16 | 225 | 6.4 | 9.7 | 0.00 | 0.00 | 0.00 | 53 | 1014.4 |
| 20260503223704 | 16 | 246 | 6.4 | 6.4 | 0.00 | 0.00 | 0.00 | 54 | 1014.4 |
| 20260503223202 | 16 | 245 | 8.0 | 9.7 | 0.00 | 0.00 | 0.00 | 51 | 1014.2 |
| 20260503222658 | 16 | 237 | 6.4 | 9.7 | 0.00 | 0.00 | 0.00 | 52 | 1014.1 |
| 20260503222156 | 16 | 231 | 12.9 | 16.1 | 0.00 | 0.00 | 0.00 | 52 | 1014.2 |
| 20260503221654 | 16 | 230 | 8.0 | 11.3 | 0.00 | 0.00 | 0.00 | 52 | 1014.1 |
| 20260503221151 | 16 | 278 | 4.8 | 11.3 | 0.00 | 0.00 | 0.00 | 51 | 1014.0 |
| 20260503220648 | 16 | 233 | 3.2 | 3.2 | 0.00 | 0.00 | 0.00 | 54 | 1014.2 |
| 20260503220144 | 16 | 235 | 3.2 | 4.8 | 0.00 | 0.00 | 0.00 | 52 | 1014.4 |
| 20260503215642 | 16 | 210 | 0.0 | 0.0 | 0.00 | 0.00 | 0.00 | 49 | 1014.7 |
| 20260503215138 | 16 | 251 | 8.0 | 9.7 | 0.00 | 0.00 | 0.00 | 52 | 1014.6 |
| 20260503214637 | 16 | 237 | 12.9 | 14.5 | 0.00 | 0.00 | 0.00 | 51 | 1014.5 |
| 20260503214132 | 16 | 234 | 8.0 | 11.3 | 0.00 | 0.00 | 0.00 | 54 | 1014.5 |
| 20260503213626 | 16 | 238 | 6.4 | 6.4 | 0.00 | 0.00 | 0.00 | 55 | 1014.5 |
| 20260503213122 | 16 | 244 | 11.3 | 12.9 | 0.00 | 0.00 | 0.00 | 53 | 1014.8 |
| 20260503212620 | 16 | 232 | 3.2 | 3.2 | 0.00 | 0.00 | 0.00 | 51 | 1014.5 |
| 20260503212117 | 16 | 240 | 9.7 | 11.3 | 0.00 | 0.00 | 0.00 | 54 | 1014.4 |
| 20260503211615 | 16 | 233 | 6.4 | 9.7 | 0.00 | 0.00 | 0.00 | 51 | 1014.8 |
| 20260503211110 | 16 | 228 | 11.3 | 12.9 | 0.00 | 0.00 | 0.00 | 52 | 1015.3 |
| 20260503210607 | 16 | 225 | 6.4 | 9.7 | 0.00 | 0.00 | 0.00 | 53 | 1015.1 |
| 20260503210103 | 16 | 230 | 12.9 | 16.1 | 0.00 | 0.00 | 0.00 | 49 | 1015.1 |
| 20260503205559 | 16 | 213 | 4.8 | 6.4 | 0.00 | 0.00 | 0.00 | 51 | 1015.3 |
| 20260503205055 | 16 | 234 | 12.9 | 14.5 | 0.00 | 0.00 | 0.00 | 52 | 1015.5 |
| 20260503204553 | 16 | 232 | 14.5 | 16.1 | 0.00 | 0.00 | 0.00 | 50 | 1015.9 |
| 20260503204050 | 16 | 240 | 12.9 | 16.1 | 0.00 | 0.00 | 0.00 | 50 | 1015.9 |
| 20260503203547 | 16 | 251 | 19.3 | 22.5 | 0.00 | 0.00 | 0.00 | 56 | 1016.0 |
| 20260503203044 | 16 | 249 | 17.7 | 20.9 | 0.00 | 0.00 | 0.00 | 52 | 1016.5 |
| 20260503202541 | 16 | 244 | 16.1 | 17.7 | 0.00 | 0.00 | 0.00 | 52 | 1016.6 |
| 20260503202034 | 16 | 275 | 14.5 | 16.1 | 0.00 | 0.00 | 0.00 | 51 | 1016.3 |
| 20260503201532 | 16 | 239 | 9.7 | 11.3 | 0.00 | 0.00 | 0.00 | 53 | 1016.6 |
| 20260503201029 | 16 | 240 | 19.3 | 25.7 | 0.00 | 0.00 | 0.00 | 49 | 1016.2 |
| 20260503200525 | 16 | 229 | 16.1 | 17.7 | 0.00 | 0.00 | 0.00 | 51 | 1016.2 |
| 20260503200022 | 17 | 262 | 14.5 | 16.1 | 0.00 | 0.00 | 0.00 | 53 | 1016.2 |
| 20260503195518 | 16 | 236 | 14.5 | 14.5 | 0.00 | 0.00 | 0.00 | 55 | 1016.5 |
| 20260503195009 | 16 | 237 | 8.0 | 9.7 | 0.00 | 0.00 | 0.00 | 53 | 1016.6 |
| 20260503194506 | 16 | 225 | 8.0 | 9.7 | 0.00 | 0.00 | 0.00 | 50 | 1016.5 |
| 20260503192917 | 16 | 243 | 17.7 | 25.7 | 0.00 | 0.00 | 0.00 | 50 | 1016.7 |
| 20260503192414 | 16 | 243 | 17.7 | 25.7 | 0.00 | 0.00 | 0.00 | 50 | 1016.7 |
| 20260503191910 | 16 | 245 | 12.9 | 22.5 | 0.00 | 0.00 | 0.00 | 48 | 1017.1 |
| 20260503191408 | 16 | 243 | 8.0 | 11.3 | 0.00 | 0.00 | 0.00 | 49 | 1017.0 |
| 20260503190903 | 16 | 234 | 3.2 | 11.3 | 0.00 | 0.00 | 0.00 | 48 | 1016.9 |
| 20260503190401 | 16 | 235 | 6.4 | 9.7 | 0.00 | 0.00 | 0.00 | 51 | 1017.0 |
| 20260503185857 | 16 | 229 | 9.7 | 11.3 | 0.00 | 0.00 | 0.00 | 50 | 1017.1 |
| 20260503185354 | 16 | 249 | 6.4 | 9.7 | 0.00 | 0.00 | 0.00 | 50 | 1017.4 |
| 20260503184854 | 16 | 234 | 12.9 | 16.1 | 0.00 | 0.00 | 0.00 | 54 | 1017.5 |
| 20260503184350 | 16 | 237 | 14.5 | 16.1 | 0.00 | 0.00 | 0.00 | 49 | 1017.5 |
| 20260503183846 | 16 | 236 | 12.9 | 20.9 | 0.00 | 0.00 | 0.00 | 49 | 1017.1 |
| 20260503183343 | 15 | 268 | 6.4 | 9.7 | 0.00 | 0.00 | 0.00 | 49 | 1017.8 |
| 20260503182840 | 16 | 225 | 30.6 | 37.0 | 0.00 | 0.00 | 0.00 | 47 | 1018.1 |
| 20260503182340 | 16 | 221 | 8.0 | 9.7 | 0.00 | 0.00 | 0.00 | 52 | 1017.9 |
| 20260503181836 | 15 | 239 | 16.1 | 17.7 | 0.00 | 0.00 | 0.00 | 48 | 1018.1 |
| 20260503181333 | 15 | 250 | 12.9 | 14.5 | 0.00 | 0.00 | 0.00 | 53 | 1018.1 |
| 20260503180830 | 16 | 244 | 6.4 | 6.4 | 0.00 | 0.00 | 0.00 | 53 | 1018.2 |
| 20260503180328 | 15 | 263 | 11.3 | 16.1 | 0.00 | 0.00 | 0.00 | 53 | 1018.6 |
| 20260503175824 | 15 | 251 | 8.0 | 9.7 | 0.00 | 0.00 | 0.00 | 49 | 1018.6 |
| 20260503175322 | 16 | 234 | 6.4 | 6.4 | 0.00 | 0.00 | 0.00 | 48 | 1018.8 |
| 20260503174817 | 15 | 207 | 0.0 | 1.6 | 0.00 | 0.00 | 0.00 | 52 | 1018.7 |
| 20260503174316 | 15 | 233 | 17.7 | 22.5 | 0.00 | 0.00 | 0.00 | 55 | 1019.0 |
| 20260503173812 | 15 | 232 | 3.2 | 4.8 | 0.00 | 0.00 | 0.00 | 48 | 1018.9 |
| 20260503173308 | 15 | 236 | 9.7 | 12.9 | 0.00 | 0.00 | 0.00 | 54 | 1019.3 |
| 20260503172804 | 15 | 150 | 1.6 | 3.2 | 0.00 | 0.00 | 0.00 | 49 | 1019.2 |
| 20260503172305 | 15 | 228 | 12.9 | 14.5 | 0.00 | 0.00 | 0.00 | 54 | 1019.2 |
| 20260503171758 | 15 | 250 | 9.7 | 11.3 | 0.00 | 0.00 | 0.00 | 53 | 1019.2 |
| 20260503171255 | 15 | 249 | 16.1 | 17.7 | 0.00 | 0.00 | 0.00 | 56 | 1019.3 |
| 20260503170753 | 15 | 251 | 19.3 | 22.5 | 0.00 | 0.00 | 0.00 | 53 | 1019.1 |
| 20260503170249 | 15 | 198 | 1.6 | 1.6 | 0.00 | 0.00 | 0.00 | 50 | 1019.2 |
| 20260503160211 | 13 | 180 | 4.8 | 6.4 | 0.00 | 0.00 | 0.00 | 51 | 1020.3 |
| 20260503150642 | 12 | 242 | 11.3 | 12.9 | 0.00 | 0.00 | 0.00 | 56 | 1020.9 |
| 20260503150137 | 12 | 235 | 14.5 | 17.7 | 0.00 | 0.00 | 0.00 | 56 | 1020.7 |
| 20260503131031 | 8 | 238 | 6.4 | 9.7 | 0.00 | 0.00 | 0.00 | 67 | 1021.3 |
| 20260503130528 | 8 | 234 | 3.2 | 3.2 | 0.00 | 0.00 | 0.00 | 69 | 1021.5 |
| 20260503110419 | 3 | 188 | 0.0 | 0.0 | 0.00 | 0.00 | 0.00 | 98 | 1020.7 |
| 20260503090303 | 3 | 184 | 0.0 | 0.0 | 0.00 | 0.00 | 0.00 | 99 | 1020.4 |
| 20260503081237 | 3 | 191 | 0.0 | 0.0 | 0.00 | 0.00 | 0.00 | 99 | 1020.5 |
| 20260503080732 | 3 | 191 | 0.0 | 0.0 | 0.00 | 0.00 | 0.00 | 99 | 1020.5 |
| 20260503080230 | 3 | 161 | 0.0 | 0.0 | 0.00 | 0.00 | 0.00 | 99 | 1020.6 |
| 20260503072706 | 3 | 191 | 0.0 | 0.0 | 0.00 | 0.00 | 0.00 | 99 | 1020.3 |
| 20260503072203 | 3 | 204 | 0.0 | 0.0 | 0.00 | 0.00 | 0.00 | 99 | 1020.3 |
| 20260503071700 | 3 | 134 | 0.0 | 0.0 | 0.00 | 0.00 | 0.00 | 99 | 1020.1 |
| 20260503071156 | 3 | 171 | 0.0 | 0.0 | 0.00 | 0.00 | 0.00 | 99 | 1020.5 |
| 20260503070653 | 3 | 173 | 0.0 | 0.0 | 0.00 | 0.00 | 0.00 | 99 | 1020.6 |
| 20260503070152 | 3 | 172 | 0.0 | 0.0 | 0.00 | 0.00 | 0.00 | 99 | 1020.6 |
| 20260503060110 | 3 | 149 | 0.0 | 0.0 | 0.00 | 0.00 | 0.00 | 98 | 1020.9 |
| 20260503055102 | 3 | 180 | 0.0 | 0.0 | 0.00 | 0.00 | 0.00 | 98 | 1021.0 |
| 20260503054557 | 3 | 135 | 0.0 | 0.0 | 0.00 | 0.00 | 0.00 | 98 | 1021.0 |
| 20260503054055 | 3 | 191 | 0.0 | 0.0 | 0.00 | 0.00 | 0.00 | 98 | 1020.9 |
| 20260503053553 | 3 | 184 | 0.0 | 0.0 | 0.00 | 0.00 | 0.00 | 98 | 1021.1 |
| 20260503053050 | 3 | 183 | 0.0 | 0.0 | 0.00 | 0.00 | 0.00 | 98 | 1021.0 |
| 20260503052547 | 3 | 182 | 0.0 | 0.0 | 0.00 | 0.00 | 0.00 | 98 | 1021.1 |
| 20260503052043 | 3 | 147 | 0.0 | 0.0 | 0.00 | 0.00 | 0.00 | 98 | 1021.0 |
| 20260503051539 | 3 | 182 | 0.0 | 0.0 | 0.00 | 0.00 | 0.00 | 97 | 1021.1 |
| 20260503051037 | 4 | 179 | 0.0 | 0.0 | 0.00 | 0.00 | 0.00 | 98 | 1021.1 |
| 20260503050532 | 4 | 183 | 0.0 | 0.0 | 0.00 | 0.00 | 0.00 | 97 | 1021.5 |
| 20260503050030 | 4 | 160 | 0.0 | 0.0 | 0.00 | 0.00 | 0.00 | 98 | 1021.3 |
| 20260503045527 | 4 | 190 | 0.0 | 0.0 | 0.00 | 0.00 | 0.00 | 97 | 1021.0 |
| 20260503045024 | 3 | 188 | 0.0 | 0.0 | 0.00 | 0.00 | 0.00 | 97 | 1021.1 |
| 20260503044521 | 3 | 185 | 0.0 | 0.0 | 0.00 | 0.00 | 0.00 | 96 | 1021.1 |
| 20260503044019 | 3 | 189 | 0.0 | 0.0 | 0.00 | 0.00 | 0.00 | 96 | 1021.3 |
| 20260503043514 | 4 | 193 | 0.0 | 0.0 | 0.00 | 0.00 | 0.00 | 96 | 1021.1 |
| 20260503043011 | 4 | 192 | 0.0 | 0.0 | 0.00 | 0.00 | 0.00 | 96 | 1020.9 |
| 20260503042508 | 4 | 200 | 0.0 | 0.0 | 0.00 | 0.00 | 0.00 | 96 | 1020.9 |
| 20260503042004 | 4 | 197 | 0.0 | 0.0 | 0.00 | 0.00 | 0.00 | 95 | 1020.9 |
| 20260503041502 | 4 | 170 | 0.0 | 0.0 | 0.00 | 0.00 | 0.00 | 95 | 1020.9 |
| 20260503040959 | 5 | 186 | 0.0 | 0.0 | 0.00 | 0.00 | 0.00 | 95 | 1020.8 |
| 20260503040456 | 4 | 195 | 0.0 | 0.0 | 0.00 | 0.00 | 0.00 | 94 | 1020.9 |
| 20260503035953 | 5 | 187 | 0.0 | 0.0 | 0.00 | 0.00 | 0.00 | 94 | 1020.8 |
| 20260503035449 | 5 | 190 | 0.0 | 0.0 | 0.00 | 0.00 | 0.00 | 93 | 1020.9 |
| 20260503034948 | 5 | 188 | 0.0 | 0.0 | 0.00 | 0.00 | 0.00 | 93 | 1020.9 |
| 20260503034444 | 5 | 194 | 0.0 | 0.0 | 0.00 | 0.00 | 0.00 | 92 | 1020.9 |
| 20260503033941 | 5 | 159 | 0.0 | 0.0 | 0.00 | 0.00 | 0.00 | 92 | 1021.0 |
| 20260503033439 | 5 | 186 | 0.0 | 0.0 | 0.00 | 0.00 | 0.00 | 92 | 1021.0 |
| 20260503032936 | 5 | 166 | 0.0 | 0.0 | 0.00 | 0.00 | 0.00 | 91 | 1021.0 |
| 20260503032435 | 5 | 188 | 0.0 | 0.0 | 0.00 | 0.00 | 0.00 | 91 | 1020.9 |
| 20260503031932 | 5 | 176 | 0.0 | 0.0 | 0.00 | 0.00 | 0.00 | 90 | 1020.9 |
| 20260503031430 | 5 | 192 | 0.0 | 0.0 | 0.00 | 0.00 | 0.00 | 90 | 1021.0 |
| 20260503030926 | 5 | 186 | 0.0 | 0.0 | 0.00 | 0.00 | 0.00 | 90 | 1020.8 |
| 20260503030423 | 5 | 192 | 0.0 | 0.0 | 0.00 | 0.00 | 0.00 | 89 | 1021.0 |
| 20260503025920 | 5 | 184 | 0.0 | 0.0 | 0.00 | 0.00 | 0.00 | 88 | 1021.1 |
| 20260503025417 | 5 | 187 | 0.0 | 0.0 | 0.00 | 0.00 | 0.00 | 87 | 1021.1 |
| 20260503024914 | 6 | 167 | 0.0 | 0.0 | 0.00 | 0.00 | 0.00 | 87 | 1021.0 |
| 20260503024410 | 6 | 194 | 0.0 | 0.0 | 0.00 | 0.00 | 0.00 | 86 | 1020.9 |
| 20260503023908 | 6 | 160 | 0.0 | 0.0 | 0.00 | 0.00 | 0.00 | 85 | 1020.9 |
| 20260503023404 | 6 | 166 | 0.0 | 0.0 | 0.00 | 0.00 | 0.00 | 84 | 1020.7 |
| 20260503022901 | 6 | 169 | 0.0 | 0.0 | 0.00 | 0.00 | 0.00 | 83 | 1020.8 |
| 20260503022355 | 6 | 191 | 0.0 | 0.0 | 0.00 | 0.00 | 0.00 | 82 | 1020.8 |
| 20260503021852 | 6 | 186 | 0.0 | 0.0 | 0.00 | 0.00 | 0.00 | 81 | 1020.8 |
| 20260503021348 | 6 | 193 | 0.0 | 0.0 | 0.00 | 0.00 | 0.00 | 81 | 1020.6 |
| 20260503020846 | 6 | 190 | 0.0 | 0.0 | 0.00 | 0.00 | 0.00 | 82 | 1020.7 |
| 20260503020344 | 7 | 189 | 0.0 | 0.0 | 0.00 | 0.00 | 0.00 | 80 | 1020.7 |
| 20260503015840 | 7 | 192 | 0.0 | 0.0 | 0.00 | 0.00 | 0.00 | 79 | 1020.5 |
| 20260503015337 | 7 | 196 | 0.0 | 0.0 | 0.00 | 0.00 | 0.00 | 79 | 1020.6 |
| 20260503014832 | 7 | 192 | 0.0 | 0.0 | 0.00 | 0.00 | 0.00 | 78 | 1020.3 |
| 20260503014330 | 7 | 187 | 0.0 | 0.0 | 0.00 | 0.00 | 0.00 | 76 | 1020.3 |
| 20260503013827 | 7 | 190 | 0.0 | 0.0 | 0.00 | 0.00 | 0.00 | 74 | 1020.3 |
| 20260503013325 | 8 | 180 | 0.0 | 0.0 | 0.00 | 0.00 | 0.00 | 71 | 1020.3 |
| 20260503012822 | 8 | 192 | 0.0 | 0.0 | 0.00 | 0.00 | 0.00 | 66 | 1020.5 |
| 20260503012319 | 8 | 189 | 0.0 | 0.0 | 0.00 | 0.00 | 0.00 | 55 | 1020.2 |
| 20260503011816 | 8 | 185 | 0.0 | 0.0 | 0.00 | 0.00 | 0.00 | 57 | 1020.2 |
| 20260503011313 | 8 | 193 | 0.0 | 0.0 | 0.00 | 0.00 | 0.00 | 54 | 1020.0 |
| 20260503010809 | 8 | 192 | 0.0 | 0.0 | 0.00 | 0.00 | 0.00 | 54 | 1020.0 |
| 20260503010307 | 8 | 194 | 0.0 | 0.0 | 0.00 | 0.00 | 0.00 | 55 | 1020.1 |
| 20260503005803 | 9 | 191 | 0.0 | 0.0 | 0.00 | 0.00 | 0.00 | 53 | 1020.0 |
| 20260503005301 | 9 | 192 | 0.0 | 0.0 | 0.00 | 0.00 | 0.00 | 53 | 1020.0 |
| 20260503004756 | 9 | 197 | 0.0 | 0.0 | 0.00 | 0.00 | 0.00 | 51 | 1020.0 |
| 20260503004255 | 10 | 190 | 0.0 | 0.0 | 0.00 | 0.00 | 0.00 | 51 | 1019.9 |
| 20260503003752 | 10 | 192 | 0.0 | 0.0 | 0.00 | 0.00 | 0.00 | 52 | 1019.8 |
| 20260503003249 | 10 | 185 | 0.0 | 0.0 | 0.00 | 0.00 | 0.00 | 53 | 1019.9 |
| 20260503002745 | 10 | 189 | 0.0 | 0.0 | 0.00 | 0.00 | 0.00 | 52 | 1019.8 |
| 20260503002242 | 10 | 187 | 0.0 | 0.0 | 0.00 | 0.00 | 0.00 | 51 | 1019.8 |
| 20260503001738 | 10 | 185 | 0.0 | 0.0 | 0.00 | 0.00 | 0.00 | 51 | 1019.8 |
| 20260503001235 | 10 | 176 | 0.0 | 0.0 | 0.00 | 0.00 | 0.00 | 49 | 1019.8 |
| 20260503000733 | 11 | 177 | 0.0 | 0.0 | 0.00 | 0.00 | 0.00 | 49 | 1019.7 |
| 20260503000230 | 11 | 196 | 0.0 | 0.0 | 0.00 | 0.00 | 0.00 | 48 | 1019.8 |
| 20260502235727 | 11 | 146 | 0.0 | 1.6 | 0.00 | 0.00 | 0.00 | 48 | 1019.7 |
| 20260502235225 | 11 | 188 | 0.0 | 0.0 | 0.00 | 0.00 | 0.00 | 47 | 1019.7 |
| 20260502234721 | 11 | 181 | 0.0 | 1.6 | 0.00 | 0.00 | 0.00 | 48 | 1019.5 |
| 20260502234218 | 11 | 198 | 1.6 | 1.6 | 0.00 | 0.00 | 0.00 | 47 | 1019.6 |
| 20260502233714 | 11 | 210 | 0.0 | 1.6 | 0.00 | 0.00 | 0.00 | 46 | 1019.4 |
| 20260502233211 | 11 | 186 | 0.0 | 0.0 | 0.00 | 0.00 | 0.00 | 43 | 1019.5 |
| 20260502232706 | 11 | 42 | 1.6 | 4.8 | 0.00 | 0.00 | 0.00 | 43 | 1019.6 |
| 20260502232204 | 12 | 231 | 0.0 | 1.6 | 0.00 | 0.00 | 0.00 | 49 | 1019.4 |
| 20260502231701 | 11 | 191 | 0.0 | 0.0 | 0.00 | 0.00 | 0.00 | 44 | 1019.4 |
| 20260502231159 | 12 | 181 | 0.0 | 0.0 | 0.00 | 0.00 | 0.00 | 45 | 1019.5 |
| 20260502230657 | 12 | 208 | 1.6 | 1.6 | 0.00 | 0.00 | 0.00 | 48 | 1019.6 |
| 20260502230155 | 11 | 223 | 1.6 | 3.2 | 0.00 | 0.00 | 0.00 | 48 | 1019.5 |